Date String (YYYY-MM-DD hh:mm:ss) UTC,Instrument flags,Ambient pressure (hPa),Sample flow (lpm),Bypass flow (lpm),Sample temperature (°C),Ambient temperature (°C),ASC tube jacket temperature (°C),LED temperature (°C),Box temperature (°C),Sample RH (%),Span deviation,Mass concentration (μg/m³),Mass concentration (μg/m³),Mass concentration (μg/m³)
DateTimeUTC,F1_M11,P_M11,Q1_M11,Q2_M11,T1_M11,T2_M11,T3_M11,T4_M11,T5_M11,U1_M11,ZSPAN_M11,X0_M11,X2_M11,X1_M11
2022-06-14 21:00:00,,0819.5,4.99,0.00,29.5,28.0,00.0,38.3,31.4,17.5,0000.0,0018.70,0006.18,0002.97
2022-06-14 21:01:00,,0819.5,4.99,0.00,29.5,28.2,00.0,38.3,31.4,17.5,0000.0,0019.37,0006.14,0002.94
2022-06-14 21:02:00,,0819.5,5.00,0.00,29.5,28.4,00.0,38.3,31.5,17.4,0000.0,0020.18,0006.13,0002.94
2022-06-14 21:03:00,,0819.6,5.01,0.00,29.5,28.5,00.0,38.4,31.5,17.2,0000.0,0020.55,0006.13,0002.95
2022-06-14 21:04:00,,0819.5,5.00,0.00,29.6,28.6,00.0,38.4,31.6,17.3,0000.0,0020.94,0006.08,0002.94
2022-06-14 21:05:00,,0819.5,4.99,0.00,29.6,28.8,00.0,38.4,31.6,17.4,0000.0,0021.04,0006.10,0002.93
2022-06-14 21:06:00,,0819.6,5.01,0.00,29.7,28.9,00.0,38.4,31.7,17.3,0000.0,0021.33,0006.17,0002.94
2022-06-14 21:07:00,,0819.6,5.01,0.00,29.7,28.9,00.0,38.4,31.7,17.2,0000.0,0020.60,0006.10,0002.95
2022-06-14 21:08:00,,0819.5,5.00,0.00,29.7,28.9,00.0,38.5,31.7,17.2,0000.0,0020.66,0006.09,0002.94
2022-06-14 21:09:00,,0819.5,5.00,0.00,29.7,28.1,00.0,38.4,31.5,17.3,0000.0,0020.90,0006.12,0002.97
2022-06-14 21:10:00,,0819.5,5.01,0.00,29.6,27.5,00.0,38.4,31.2,17.5,0000.0,0020.01,0006.17,0002.98
2022-06-14 21:11:00,,0819.4,4.99,0.00,29.6,27.3,00.0,38.3,31.2,17.6,0000.0,0019.82,0006.26,0002.98
2022-06-14 21:12:00,,0819.4,5.00,0.00,29.5,27.4,00.0,38.3,31.2,17.6,0000.0,0018.64,0006.30,0002.98
2022-06-14 21:13:00,,0819.3,5.01,0.00,29.5,27.5,00.0,38.3,31.3,17.6,0000.0,0018.65,0006.26,0002.97
2022-06-14 21:14:00,,0819.2,5.00,0.00,29.5,27.7,00.0,38.3,31.3,17.4,0000.0,0018.38,0006.19,0002.96
2022-06-14 21:15:00,,0819.2,5.01,0.00,29.5,27.9,00.0,38.3,31.3,17.0,0000.0,0017.76,0006.17,0002.95
2022-06-14 21:16:00,,0819.2,5.00,0.00,29.5,28.1,00.0,38.3,31.4,16.6,0000.0,0018.46,0006.14,0002.93
2022-06-14 21:17:00,,0819.2,5.01,0.00,29.5,28.3,00.0,38.3,31.4,16.8,0000.0,0018.81,0006.05,0002.91
2022-06-14 21:18:00,,0819.3,5.01,0.00,29.5,28.4,00.0,38.4,31.5,16.8,0000.0,0018.49,0006.03,0002.87
2022-06-14 21:19:00,,0819.3,5.01,0.00,29.6,28.6,00.0,38.4,31.5,16.8,0000.0,0018.41,0005.98,0002.83
2022-06-14 21:20:00,,0819.3,4.99,0.00,29.6,28.7,00.0,38.4,31.6,16.7,0000.0,0017.96,0005.85,0002.77
2022-06-14 21:21:00,,0819.3,5.00,0.00,29.7,28.8,00.0,38.4,31.7,16.5,0000.0,0018.17,0005.84,0002.74
2022-06-14 21:22:00,,0819.3,5.01,0.00,29.7,28.9,00.0,38.4,31.7,16.4,0000.0,0017.50,0005.70,0002.69
2022-06-14 21:23:00,,0819.2,5.00,0.00,29.7,28.9,00.0,38.4,31.7,16.0,0000.0,0017.15,0005.58,0002.65
2022-06-14 21:24:00,,0819.1,5.00,0.00,29.7,28.1,00.0,38.4,31.4,15.2,0000.0,0016.34,0005.55,0002.62
2022-06-14 21:25:00,,0819.1,5.00,0.00,29.6,27.4,00.0,38.3,31.3,14.7,0000.0,0015.87,0005.55,0002.58
2022-06-14 21:26:00,,0819.1,5.00,0.00,29.5,27.4,00.0,38.3,31.2,14.8,0000.0,0016.27,0005.56,0002.56
2022-06-14 21:27:00,,0819.1,5.00,0.00,29.5,27.4,00.0,38.3,31.2,14.4,0000.0,0016.41,0005.45,0002.52
2022-06-14 21:28:00,,0819.1,4.98,0.00,29.5,27.6,00.0,38.3,31.3,14.6,0000.0,0016.83,0005.39,0002.46
2022-06-14 21:29:00,,0819.1,5.00,0.00,29.5,27.8,00.0,38.3,31.3,14.7,0000.0,0016.89,0005.33,0002.41
2022-06-14 21:30:00,,0819.1,5.01,0.00,29.5,28.0,00.0,38.3,31.4,14.7,0000.0,0016.87,0005.32,0002.37
2022-06-14 21:31:00,,0819.0,5.01,0.00,29.5,28.2,00.0,38.3,31.4,14.7,0000.0,0016.87,0005.32,0002.35
2022-06-14 21:32:00,,0819.0,5.01,0.00,29.5,28.3,00.0,38.4,31.5,14.2,0000.0,0016.36,0005.23,0002.31
2022-06-14 21:33:00,,0819.0,5.00,0.00,29.6,28.5,00.0,38.4,31.5,13.8,0000.0,0016.32,0005.21,0002.27
2022-06-14 21:34:00,,0819.1,5.02,0.00,29.6,28.6,00.0,38.4,31.6,13.8,0000.0,0016.50,0005.23,0002.24
2022-06-14 21:35:00,,0819.2,4.99,0.00,29.6,28.8,00.0,38.4,31.7,13.1,0000.0,0016.40,0005.15,0002.20
2022-06-14 21:36:00,,0819.1,4.99,0.00,29.7,28.9,00.0,38.4,31.7,12.9,0000.0,0016.23,0005.10,0002.17
2022-06-14 21:37:00,,0819.2,5.02,0.00,29.7,28.7,00.0,38.4,31.7,13.0,0000.0,0015.67,0005.04,0002.15
2022-06-14 21:38:00,,0819.1,5.00,0.00,29.7,27.9,00.0,38.4,31.4,12.9,0000.0,0014.84,0005.09,0002.13
2022-06-14 21:39:00,,0819.1,4.99,0.00,29.6,27.5,00.0,38.3,31.3,13.1,0000.0,0014.23,0005.14,0002.12
2022-06-14 21:40:00,,0819.1,5.00,0.00,29.6,27.4,00.0,38.3,31.3,13.3,0000.0,0014.37,0005.14,0002.12
2022-06-14 21:41:00,,0819.1,5.01,0.00,29.5,27.5,00.0,38.3,31.3,13.9,0000.0,0014.52,0005.11,0002.13
2022-06-14 21:42:00,,0819.1,4.99,0.00,29.5,27.6,00.0,38.3,31.3,14.3,0000.0,0014.74,0005.13,0002.13
2022-06-14 21:43:00,,0819.1,5.01,0.00,29.5,27.8,00.0,38.3,31.3,14.5,0000.0,0014.97,0005.24,0002.15
2022-06-14 21:44:00,,0819.1,5.00,0.00,29.5,28.0,00.0,38.3,31.4,15.0,0000.0,0015.30,0005.30,0002.18
2022-06-14 21:45:00,,0819.0,4.99,0.00,29.5,28.2,00.0,38.3,31.4,15.0,0000.0,0015.26,0005.34,0002.23
2022-06-14 21:46:00,,0819.0,5.00,0.00,29.6,28.4,00.0,38.4,31.5,15.6,0000.0,0015.43,0005.47,0002.30
2022-06-14 21:47:00,,0819.0,5.00,0.00,29.6,28.5,00.0,38.4,31.5,15.9,0000.0,0015.76,0005.57,0002.34
2022-06-14 21:48:00,,0819.0,5.00,0.00,29.6,28.7,00.0,38.4,31.6,16.1,0000.0,0016.23,0005.71,0002.39
2022-06-14 21:49:00,,0818.9,5.00,0.00,29.7,28.8,00.0,38.4,31.7,16.2,0000.0,0016.61,0005.85,0002.45
2022-06-14 21:50:00,,0818.8,4.99,0.00,29.7,28.9,00.0,38.4,31.7,16.4,0000.0,0016.87,0005.96,0002.57
2022-06-14 21:51:00,,0818.9,5.00,0.00,29.7,28.6,00.0,38.4,31.6,16.5,0000.0,0017.43,0006.01,0002.62
2022-06-14 21:52:00,,0818.8,4.99,0.00,29.6,27.7,00.0,38.4,31.3,16.4,0000.0,0018.06,0006.12,0002.65
2022-06-14 21:53:00,,0818.8,5.01,0.00,29.6,27.3,00.0,38.3,31.2,16.2,0000.0,0018.05,0006.11,0002.65
2022-06-14 21:54:00,,0818.8,4.99,0.00,29.5,27.2,00.0,38.3,31.2,16.0,0000.0,0018.14,0006.07,0002.66
2022-06-14 21:55:00,,0818.9,5.01,0.00,29.4,27.4,00.0,38.3,31.2,15.6,0000.0,0019.09,0006.09,0002.67
2022-06-14 21:56:00,,0818.9,5.00,0.00,29.4,27.5,00.0,38.3,31.2,15.1,0000.0,0019.25,0006.08,0002.64
2022-06-14 21:57:00,,0818.9,4.99,0.00,29.4,27.7,00.0,38.3,31.3,14.8,0000.0,0019.43,0006.05,0002.58
2022-06-14 21:58:00,,0819.0,5.01,0.00,29.4,27.9,00.0,38.3,31.3,14.7,0000.0,0019.61,0006.08,0002.55
2022-06-14 21:59:00,,0819.0,5.00,0.00,29.5,28.1,00.0,38.3,31.4,14.6,0000.0,0019.60,0006.07,0002.52
